IZ3ZOD-13 Weather Reports


time (UTC)temp
C
wind
direction
speed
KPH
gust
KPH
rain 1hr
cm
rain 24hr
cm
rain mn
cm
humidity
%
barometer
mb
20260507074003 18 138 1.6 3.2 0.00 1.04 0.03 78 1013.3
20260507073603 18 151 0.0 3.2 0.00 1.04 0.03 80 1013.3
20260507073203 17 253 0.0 1.6 0.00 1.04 0.03 82 1013.3
20260507072803 17 256 0.0 1.6 0.00 1.04 0.03 85 1013.3
20260507072403 17 254 0.0 1.6 0.00 1.04 0.03 85 1013.2
20260507072216 17 253 1.6 3.2 0.00 1.04 0.03 85 1013.2
20260507071604 17 253 1.6 4.8 0.00 1.04 0.03 85 1013.3
20260507071203 17 291 1.6 4.8 0.00 1.04 0.03 85 1013.3
20260507070803 17 325 1.6 3.2 0.00 1.04 0.03 87 1013.2
20260507070403 16 304 1.6 3.2 0.00 1.04 0.03 87 1013.2
20260507070004 16 276 0.0 1.6 0.00 1.04 0.03 87 1013.1
20260507065818 16 274 0.0 1.6 0.00 1.04 0.03 88 1013.1
20260507065203 16 269 1.6 3.2 0.00 1.04 0.03 90 1013.0
20260507065016 16 267 1.6 3.2 0.00 1.04 0.03 91 1013.1
20260507064403 16 259 1.6 3.2 0.00 1.04 0.03 90 1013.0
20260507064003 17 253 0.0 3.2 0.00 1.04 0.03 91 1012.9
20260507063603 16 0 0.0 0.0 0.00 1.07 0.03 95 1013.0
20260507063203 16 270 0.0 3.2 0.00 1.07 0.03 96 1012.8
20260507062803 15 251 0.0 3.2 0.00 1.07 0.03 97 1012.8
20260507062403 15 248 1.6 4.8 0.00 1.07 0.03 96 1012.8
20260507062003 15 243 3.2 4.8 0.00 1.07 0.03 96 1012.9
20260507061816 15 244 3.2 4.8 0.00 1.07 0.03 96 1012.9
20260507061203 15 252 4.8 6.4 0.00 1.07 0.03 97 1013.0
20260507060803 15 258 4.8 6.4 0.00 1.07 0.03 97 1012.8
20260507060403 15 259 4.8 6.4 0.00 1.07 0.03 97 1012.8
20260507060214 15 258 4.8 6.4 0.00 1.07 0.03 97 1012.9
20260507055603 15 266 1.6 6.4 0.00 1.07 0.03 97 1012.8
20260507055203 15 278 0.0 3.2 0.00 1.07 0.03 97 1012.9
20260507055017 15 285 0.0 1.6 0.00 1.07 0.03 98 1012.7
20260507054616 15 286 0.0 1.6 0.00 1.07 0.03 97 1012.7
20260507054004 15 286 0.0 1.6 0.00 1.07 0.03 98 1012.6
20260507053815 15 286 0.0 1.6 0.00 1.07 0.03 98 1012.4
20260507053204 15 0 0.0 0.0 0.00 1.07 0.03 98 1012.4
20260507053014 15 0 0.0 0.0 0.00 1.07 0.03 98 1012.3
20260507052403 15 0 0.0 0.0 0.00 1.07 0.03 98 1012.1
20260507052003 14 0 0.0 0.0 0.00 1.07 0.03 98 1012.3
20260507051817 14 0 0.0 0.0 0.00 1.07 0.03 98 1012.3
20260507051416 14 271 0.0 0.0 0.00 1.09 0.03 98 1012.3
20260507051016 13 270 0.0 3.2 0.00 1.09 0.03 98 1012.1
20260507050403 13 270 0.0 3.2 0.00 1.09 0.03 98 1012.2
20260507050003 13 0 0.0 0.0 0.00 1.09 0.03 98 1012.2
20260507045814 13 0 0.0 0.0 0.00 1.09 0.03 98 1012.1
20260507045203 13 0 0.0 0.0 0.00 1.09 0.03 98 1012.1
20260507044803 13 0 0.0 0.0 0.00 1.09 0.03 98 1011.9
20260507044403 13 0 0.0 0.0 0.00 1.09 0.03 98 1012.1
20260507044216 13 0 0.0 0.0 0.00 1.09 0.03 98 1012.0
20260507043603 13 0 0.0 0.0 0.00 1.09 0.03 98 1011.8
20260507043203 13 0 0.0 0.0 0.00 1.09 0.03 98 1011.8
20260507042803 13 278 0.0 1.6 0.00 1.09 0.03 98 1011.7
20260507042403 13 278 0.0 1.6 0.00 1.09 0.03 98 1011.7
20260507042004 13 278 0.0 1.6 0.00 1.09 0.03 98 1011.7
20260507041603 13 0 0.0 0.0 0.00 1.09 0.03 98 1011.7
20260507041203 13 278 0.0 1.6 0.00 1.09 0.03 98 1011.5
20260507041016 13 278 0.0 1.6 0.00 1.09 0.03 98 1011.7
20260507040616 13 278 0.0 1.6 0.00 1.09 0.03 98 1011.6
20260507040003 12 0 0.0 0.0 0.00 1.09 0.03 98 1011.6
20260507035603 12 0 0.0 0.0 0.00 1.09 0.03 98 1011.4
20260507035414 12 0 0.0 0.0 0.00 1.09 0.03 98 1011.5
20260507034803 12 0 0.0 0.0 0.03 1.09 0.03 98 1011.5
20260507034404 12 0 0.0 0.0 0.03 1.09 0.03 97 1011.5
20260507034003 12 0 0.0 0.0 0.03 1.09 0.03 97 1011.5
20260507033603 12 0 0.0 0.0 0.03 1.12 0.03 97 1011.5
20260507033203 12 0 0.0 0.0 0.03 1.12 0.03 97 1011.5
20260507032803 12 0 0.0 0.0 0.03 1.14 0.03 97 1011.2
20260507032403 12 0 0.0 0.0 0.03 1.17 0.03 97 1011.3
20260507032003 11 0 0.0 0.0 0.03 1.19 0.03 97 1011.6
20260507031813 11 0 0.0 0.0 0.03 1.22 0.03 97 1011.5
20260507031203 11 0 0.0 0.0 0.03 1.30 0.03 97 1011.4
20260507030803 11 0 0.0 0.0 0.03 1.35 0.03 97 1011.4
20260507030616 11 0 0.0 0.0 0.03 1.35 0.03 97 1011.3
20260507030003 12 0 0.0 0.0 0.03 1.37 0.03 97 1011.2
20260507025815 12 0 0.0 0.0 0.03 1.37 0.03 97 1011.4
20260507025414 12 0 0.0 0.0 0.03 1.37 0.03 97 1011.2
20260507024803 12 0 0.0 0.0 0.00 1.35 0.00 97 1011.3
20260507024403 12 0 0.0 0.0 0.00 1.35 0.00 97 1011.3
20260507024213 11 0 0.0 0.0 0.00 1.35 0.00 97 1011.4
20260507023603 11 0 0.0 0.0 0.00 1.35 0.00 97 1011.2
20260507023203 12 0 0.0 0.0 0.00 1.35 0.00 97 1011.2
20260507022803 12 0 0.0 0.0 0.00 1.35 0.00 97 1011.2
20260507022403 12 0 0.0 0.0 0.00 1.35 0.00 97 1011.2
20260507022003 12 0 0.0 0.0 0.00 1.35 0.00 97 1011.2
20260507021603 12 0 0.0 0.0 0.00 1.35 0.00 97 1011.4
20260507021203 12 0 0.0 0.0 0.00 1.35 0.00 97 1011.1
20260507021012 12 0 0.0 0.0 0.00 1.35 0.00 97 1011.2
20260507020403 12 0 0.0 0.0 0.00 1.35 0.00 97 1011.2
20260507020003 12 0 0.0 0.0 0.00 1.35 0.00 97 1011.3
20260507015603 12 0 0.0 0.0 0.00 1.35 0.00 97 1011.1
20260507015203 12 0 0.0 0.0 0.00 1.35 0.00 97 1011.2
20260507014803 12 278 0.0 1.6 0.00 1.35 0.00 97 1011.1
20260507014403 12 278 0.0 3.2 0.00 1.35 0.00 97 1011.0
20260507014003 12 278 0.0 3.2 0.00 1.35 0.00 97 1011.2
20260507013603 12 278 0.0 1.6 0.00 1.35 0.00 97 1011.0
20260507013203 12 0 0.0 0.0 0.00 1.35 0.00 97 1010.9
20260507013016 12 0 0.0 0.0 0.00 1.35 0.00 97 1011.1
20260507012403 12 0 0.0 0.0 0.00 1.35 0.00 97 1011.1
20260507012003 12 0 0.0 0.0 0.00 1.35 0.00 97 1011.0
20260507011603 12 0 0.0 0.0 0.00 1.35 0.00 97 1010.9
20260507011203 12 0 0.0 0.0 0.00 1.35 0.00 97 1011.1
20260507010803 13 0 0.0 0.0 0.00 1.35 0.00 97 1011.1
20260507010403 13 0 0.0 0.0 0.00 1.35 0.00 97 1011.2
20260507010003 13 0 0.0 0.0 0.00 1.35 0.00 97 1011.2
20260507005603 13 279 0.0 1.6 0.00 1.35 0.00 97 1011.3
20260507005203 13 279 0.0 1.6 0.00 1.35 0.00 97 1011.1
20260507004803 13 279 0.0 3.2 0.00 1.35 0.00 97 1011.3
20260507004403 13 279 0.0 3.2 0.00 1.35 0.00 97 1011.1
20260507004003 13 279 0.0 3.2 0.00 1.35 0.00 97 1011.1
20260507003603 13 0 0.0 0.0 0.00 1.35 0.00 97 1011.0
20260507003203 13 0 0.0 0.0 0.00 1.35 0.00 97 1011.2
20260507002803 13 0 0.0 0.0 0.00 1.35 0.00 97 1011.2
20260507002403 13 0 0.0 0.0 0.00 1.35 0.00 97 1011.1
20260507002003 13 0 0.0 0.0 0.00 1.35 0.00 97 1011.1
20260507001603 13 0 0.0 0.0 0.00 1.35 0.00 97 1011.0
20260507001203 13 0 0.0 0.0 0.00 1.35 0.00 97 1010.9
20260507000803 13 0 0.0 0.0 0.00 1.35 0.00 97 1011.0
20260507000405 13 0 0.0 0.0 0.00 1.35 0.00 97 1011.0
20260507000004 13 0 0.0 0.0 0.00 1.35 0.00 97 1011.1
20260506235817 13 0 0.0 0.0 0.00 1.35 0.00 97 1011.1
20260506235416 13 0 0.0 0.0 0.00 1.35 0.00 97 1011.2
20260506234803 13 0 0.0 0.0 0.00 1.35 0.00 96 1011.1
20260506234403 13 0 0.0 0.0 0.00 1.35 0.00 96 1011.3
20260506234003 13 280 0.0 3.2 0.00 1.35 0.00 96 1011.0
20260506233814 13 281 0.0 3.2 0.00 1.35 0.00 96 1011.1
20260506233203 13 282 0.0 3.2 0.00 1.35 0.00 96 1011.1
20260506233013 13 282 0.0 3.2 0.00 1.35 0.00 96 1011.2
20260506232403 13 0 0.0 0.0 0.00 1.35 0.00 96 1011.2
20260506232003 13 0 0.0 0.0 0.00 1.35 0.00 96 1011.2
20260506231816 14 0 0.0 0.0 0.00 1.35 0.00 96 1011.3
20260506231415 14 0 0.0 0.0 0.00 1.35 0.00 96 1011.1
20260506230803 13 0 0.0 0.0 0.00 1.35 0.00 96 1011.1
20260506230403 13 0 0.0 0.0 0.00 1.35 0.00 96 1011.3
20260506230003 13 0 0.0 0.0 0.00 1.35 0.00 96 1011.1
20260506225603 13 0 0.0 0.0 0.00 1.35 0.00 96 1011.0
20260506225203 13 0 0.0 0.0 0.00 1.35 0.00 96 1011.1
20260506224803 13 0 0.0 0.0 0.00 1.35 0.00 96 1011.0
20260506224403 13 0 0.0 0.0 0.00 1.35 0.00 96 1011.1
20260506224003 13 0 0.0 0.0 0.00 1.35 0.00 96 1011.1
20260506223603 14 284 0.0 3.2 0.00 1.35 0.00 96 1011.1
20260506223203 14 284 0.0 3.2 0.00 1.35 0.00 96 1011.1
20260506223013 14 284 0.0 3.2 0.00 1.35 0.00 96 1011.2
20260506222403 14 283 0.0 1.6 0.00 1.35 0.00 96 1011.1
20260506222003 14 283 0.0 1.6 0.00 1.35 0.00 96 1011.2
20260506221603 14 283 0.0 3.2 0.00 1.35 0.00 96 1011.1
20260506221203 13 283 0.0 3.2 0.00 1.35 0.00 96 1011.1
20260506220803 13 283 0.0 1.6 0.00 1.35 0.00 96 1010.9
20260506220403 13 0 0.0 0.0 0.00 1.35 0.00 96 1011.1
20260506220004 14 0 0.0 0.0 0.00 1.35 0.00 96 1011.1
20260506215603 14 0 0.0 0.0 0.00 1.35 1.35 96 1011.1
20260506215203 14 283 0.0 0.0 0.00 1.35 1.35 96 1011.1
20260506214803 14 283 0.0 1.6 0.00 1.35 1.35 96 1011.0
20260506214403 14 283 0.0 1.6 0.00 1.35 1.35 96 1011.0
20260506214003 14 284 0.0 3.2 0.00 1.35 1.35 95 1011.0
20260506213603 14 284 0.0 3.2 0.00 1.35 1.35 95 1010.9
20260506213203 14 285 0.0 3.2 0.00 1.35 1.35 95 1011.2
20260506212803 14 296 1.6 3.2 0.00 1.35 1.35 95 1010.8
20260506212403 14 302 1.6 3.2 0.00 1.35 1.35 95 1010.9
20260506212003 14 337 0.0 3.2 0.00 1.35 1.35 95 1010.9
20260506211817 14 1 0.0 1.6 0.00 1.35 1.35 95 1010.9
20260506211203 15 0 0.0 0.0 0.00 1.35 1.35 95 1010.9
20260506210803 15 0 0.0 0.0 0.00 1.35 1.35 95 1010.9
20260506210615 15 0 0.0 0.0 0.00 1.35 1.35 95 1010.8
20260506210214 15 0 0.0 0.0 0.00 1.35 1.35 95 1010.7
20260506205603 15 0 0.0 0.0 0.00 1.35 1.35 95 1010.8
20260506205203 15 0 0.0 0.0 0.00 1.35 1.35 95 1010.7
20260506204803 15 0 0.0 0.0 0.00 1.35 1.35 94 1010.7
20260506204403 15 0 0.0 0.0 0.00 1.35 1.35 94 1010.7
20260506204003 15 0 0.0 0.0 0.00 1.35 1.35 94 1010.7
20260506203816 15 0 0.0 0.0 0.00 1.35 1.35 94 1010.7
20260506203415 15 0 0.0 0.0 0.00 1.35 1.35 94 1010.7
20260506202803 15 0 0.0 0.0 0.00 1.35 1.35 93 1010.9
20260506202404 15 0 0.0 0.0 0.00 1.35 1.35 93 1010.7
20260506202003 15 0 0.0 0.0 0.00 1.35 1.35 93 1010.7
20260506201603 15 0 0.0 0.0 0.00 1.35 1.35 93 1010.6
20260506201203 15 0 0.0 0.0 0.00 1.35 1.35 93 1010.5
20260506200803 15 0 0.0 0.0 0.00 1.35 1.35 93 1010.6
20260506200403 16 0 0.0 0.0 0.00 1.35 1.35 93 1010.4
20260506200215 16 0 0.0 0.0 0.00 1.35 1.35 93 1010.6
20260506195603 16 6 0.0 3.2 0.00 1.35 1.35 93 1010.4
20260506195203 16 7 1.6 3.2 0.00 1.35 1.35 93 1010.5
20260506194803 16 7 1.6 3.2 0.00 1.35 1.35 93 1010.3
20260506194403 16 8 0.0 3.2 0.00 1.35 1.35 92 1010.3
20260506194003 16 7 0.0 1.6 0.00 1.35 1.35 92 1010.2
20260506193603 16 7 0.0 1.6 0.00 1.35 1.35 92 1010.2
20260506193203 16 7 0.0 1.6 0.00 1.35 1.35 92 1010.2
20260506192803 16 6 1.6 1.6 0.00 1.35 1.35 92 1010.1
20260506192403 16 2 1.6 4.8 0.00 1.35 1.35 92 1010.0
20260506192003 16 3 3.2 4.8 0.00 1.35 1.35 92 1010.1
20260506191814 16 3 3.2 4.8 0.00 1.35 1.35 92 1010.1
20260506191203 16 8 1.6 3.2 0.00 1.35 1.35 91 1010.1
20260506191017 16 6 1.6 4.8 0.00 1.35 1.35 91 1009.9
20260506190403 16 4 1.6 4.8 0.00 1.35 1.35 91 1009.9
20260506190004 16 6 1.6 3.2 0.00 1.35 1.35 91 1009.9
20260506185603 16 11 1.6 4.8 0.00 1.35 1.35 91 1009.7
20260506185203 16 14 3.2 4.8 0.00 1.35 1.35 90 1010.0
20260506184803 16 27 3.2 6.4 0.00 1.35 1.35 90 1009.8
20260506184403 16 34 3.2 6.4 0.00 1.35 1.35 90 1009.8
20260506184003 16 25 3.2 6.4 0.00 1.35 1.35 90 1009.7
20260506183603 17 20 3.2 6.4 0.00 1.35 1.35 90 1009.7
20260506183416 17 22 3.2 6.4 0.00 1.35 1.35 90 1009.6
20260506182803 17 26 4.8 6.4 0.00 1.35 1.35 90 1009.7
20260506182403 17 22 3.2 6.4 0.00 1.35 1.35 90 1009.6
20260506182214 17 16 3.2 6.4 0.00 1.35 1.35 90 1009.5
20260506181603 17 11 1.6 4.8 0.00 1.35 1.35 90 1009.7
20260506181203 17 39 1.6 6.4 0.00 1.35 1.35 89 1009.5
20260506180803 17 61 3.2 8.0 0.00 1.35 1.35 89 1009.4
20260506180403 17 60 6.4 9.7 0.00 1.35 1.35 88 1009.4
20260506180216 17 60 6.4 11.3 0.00 1.35 1.35 88 1009.1
20260506175816 17 58 6.4 11.3 0.00 1.35 1.35 88 1009.0
20260506175415 17 56 4.8 11.3 0.00 1.35 1.35 88 1009.0
20260506174803 17 49 1.6 4.8 0.00 1.35 1.35 87 1009.3
20260506174403 17 41 1.6 3.2 0.00 1.35 1.35 87 1009.4
20260506174003 17 35 1.6 3.2 0.00 1.35 1.35 87 1009.4
20260506173603 17 18 1.6 3.2 0.00 1.35 1.35 87 1009.3
20260506173203 17 7 1.6 3.2 0.00 1.35 1.35 87 1009.3
20260506172803 17 1 1.6 4.8 0.00 1.35 1.35 88 1009.4
20260506172403 17 5 3.2 4.8 0.00 1.35 1.35 88 1009.5
20260506172003 17 12 3.2 4.8 0.00 1.35 1.35 88 1009.5
20260506171603 17 17 1.6 4.8 0.00 1.35 1.35 88 1009.3
20260506171203 17 6 1.6 3.2 0.00 1.35 1.35 88 1009.2
20260506171013 17 3 3.2 4.8 0.00 1.35 1.35 87 1009.1
20260506170403 17 2 3.2 6.4 0.00 1.35 1.35 87 1009.0
20260506170003 17 7 3.2 6.4 0.00 1.35 1.35 87 1009.3
20260506165816 17 9 3.2 6.4 0.00 1.35 1.35 87 1009.2
20260506165203 17 41 1.6 3.2 0.00 1.35 1.35 87 1009.0
20260506164804 17 51 1.6 3.2 0.00 1.35 1.35 86 1009.1
20260506164403 18 65 1.6 3.2 0.00 1.35 1.35 85 1009.1
20260506164214 18 69 1.6 3.2 0.00 1.35 1.35 85 1009.1
20260506163603 18 62 3.2 6.4 0.00 1.35 1.35 85 1009.0
20260506163203 18 53 3.2 6.4 0.00 1.35 1.35 85 1009.2
20260506162803 18 58 3.2 6.4 0.00 1.35 1.35 84 1009.2
20260506162403 18 67 3.2 6.4 0.00 1.35 1.35 84 1009.1
20260506162003 18 77 3.2 6.4 0.00 1.35 1.35 83 1009.0
20260506161603 18 75 3.2 4.8 0.00 1.35 1.35 83 1009.2
20260506161414 18 78 3.2 4.8 0.00 1.35 1.35 83 1009.2
20260506160803 18 62 3.2 6.4 0.00 1.35 1.35 82 1009.5
20260506160403 18 67 3.2 9.7 0.00 1.35 1.35 81 1009.6
20260506160212 18 72 3.2 9.7 0.00 1.35 1.35 81 1009.4
20260506155603 18 95 3.2 9.7 0.00 1.35 1.35 81 1009.3
20260506155203 18 88 4.8 9.7 0.00 1.35 1.35 82 1009.3
20260506154803 18 83 4.8 9.7 0.00 1.35 1.35 82 1009.3
20260506154615 18 76 4.8 9.7 0.00 1.35 1.35 83 1009.5
20260506154214 18 64 4.8 9.7 0.00 1.35 1.35 86 1009.4
20260506153603 18 58 4.8 9.7 0.00 1.35 1.35 86 1009.3
20260506153203 18 68 4.8 6.4 0.00 1.35 1.35 87 1009.4
20260506152803 17 76 4.8 6.4 0.00 1.35 1.35 86 1009.3
20260506152403 17 88 3.2 6.4 0.00 1.35 1.35 87 1009.3
20260506152003 17 95 3.2 9.7 0.00 1.35 1.35 88 1009.4
20260506151603 17 88 4.8 12.9 0.00 1.35 1.35 88 1009.2
20260506151203 17 83 6.4 12.9 0.00 1.35 1.35 89 1009.3
20260506150803 17 82 6.4 9.7 0.00 1.35 1.35 88 1009.4
20260506150403 17 81 6.4 9.7 0.00 1.35 1.35 88 1009.5
20260506150003 17 67 6.4 12.9 0.00 1.35 1.35 87 1009.6
20260506145603 17 53 6.4 12.9 0.00 1.35 1.35 86 1009.3
20260506145203 17 39 6.4 12.9 0.00 1.35 1.35 85 1009.4
20260506144803 17 33 4.8 11.3 0.00 1.35 1.35 86 1009.3
20260506144403 17 40 4.8 11.3 0.00 1.35 1.35 86 1009.4
20260506144003 17 49 4.8 11.3 0.00 1.35 1.35 86 1009.5
20260506143814 17 51 4.8 11.3 0.00 1.35 1.35 86 1009.4
20260506143203 17 50 4.8 9.7 0.00 1.35 1.35 86 1009.7
20260506142803 17 51 4.8 9.7 0.00 1.35 1.35 88 1009.6
20260506142403 17 56 6.4 12.9 0.00 1.35 1.35 88 1009.5
20260506142004 17 48 4.8 12.9 0.00 1.35 1.35 90 1009.4
20260506141603 17 48 6.4 12.9 0.00 1.35 1.35 90 1009.4
20260506141203 17 50 6.4 9.7 0.00 1.35 1.35 91 1009.4
20260506140803 17 51 6.4 11.3 0.00 1.35 1.35 90 1009.5
20260506140403 17 51 6.4 11.3 0.00 1.35 1.35 91 1009.5
20260506140004 17 51 6.4 9.7 0.00 1.35 1.35 92 1009.5
20260506135603 17 47 6.4 12.9 0.08 1.35 1.35 92 1009.6
20260506135203 17 37 8.0 12.9 0.18 1.35 1.35 92 1009.6
20260506134803 17 34 8.0 11.3 0.36 1.35 1.35 92 1009.4
20260506134616 17 35 8.0 11.3 0.48 1.35 1.35 92 1009.4
20260506134003 16 48 8.0 11.3 0.74 1.35 1.35 93 1009.6
20260506133603 16 47 8.0 14.5 0.79 1.35 1.35 92 1009.5
20260506133203 16 42 8.0 14.5 0.89 1.35 1.35 93 1009.5
20260506132803 16 44 8.0 12.9 0.91 1.35 1.35 93 1009.7
20260506132403 16 45 8.0 12.9 0.91 1.35 1.35 93 1009.7
20260506132003 16 45 9.7 12.9 0.94 1.35 1.35 93 1009.9
20260506131603 16 44 9.7 17.7 0.94 1.35 1.35 93 1010.0
20260506131203 16 45 9.7 17.7 0.94 1.35 1.35 93 1009.9
20260506130803 16 46 8.0 14.5 0.94 1.35 1.35 93 1009.8
20260506130615 16 43 6.4 14.5 0.94 1.35 1.35 94 1009.8
20260506130004 16 50 6.4 11.3 0.94 1.35 1.35 93 1009.7
20260506125603 16 49 6.4 11.3 0.86 1.27 1.27 92 1009.9
20260506125413 16 52 4.8 9.7 0.84 1.24 1.24 92 1009.9
20260506124803 16 10 0.0 4.8 0.58 0.99 0.99 91 1010.1
20260506124403 17 35 1.6 4.8 0.36 0.76 0.76 91 1010.2
20260506124003 17 46 1.6 4.8 0.20 0.61 0.61 90 1010.1
20260506123816 17 49 1.6 4.8 0.18 0.58 0.58 90 1010.1
20260506123203 17 50 3.2 6.4 0.05 0.46 0.46 89 1010.1
20260506122803 17 45 4.8 8.0 0.03 0.43 0.43 89 1010.0
20260506122614 17 44 4.8 8.0 0.03 0.43 0.43 88 1010.0
20260506122003 17 44 6.4 12.9 0.00 0.41 0.41 89 1010.0
20260506121603 17 49 8.0 12.9 0.00 0.41 0.41 89 1009.9
20260506121203 17 50 6.4 12.9 0.00 0.41 0.41 90 1009.9
20260506121016 17 56 6.4 11.3 0.00 0.41 0.41 89 1010.0
20260506120616 17 71 8.0 12.9 0.00 0.41 0.41 90 1010.0
20260506120003 17 75 9.7 12.9 0.00 0.41 0.41 89 1010.1
20260506115603 17 72 9.7 14.5 0.00 0.41 0.41 89 1010.1
20260506115203 17 68 8.0 14.5 0.00 0.41 0.41 88 1010.1
20260506114803 17 61 8.0 14.5 0.00 0.41 0.41 88 1010.3
20260506114403 17 56 8.0 16.1 0.00 0.41 0.41 88 1010.3
20260506114217 17 55 9.7 16.1 0.00 0.41 0.41 88 1010.3
20260506113817 17 53 9.7 16.1 0.00 0.41 0.41 87 1010.4
20260506113203 17 50 8.0 14.5 0.00 0.41 0.41 87 1010.5
20260506112803 17 57 8.0 14.5 0.00 0.41 0.41 87 1010.5
20260506112614 17 60 8.0 14.5 0.00 0.41 0.41 86 1010.4
20260506112214 17 73 6.4 14.5 0.00 0.41 0.41 86 1010.6
20260506111603 17 72 8.0 14.5 0.00 0.41 0.41 86 1010.6
20260506111203 17 65 8.0 14.5 0.00 0.41 0.41 86 1010.6
20260506110803 17 57 8.0 14.5 0.00 0.41 0.41 86 1010.7
20260506110403 17 61 6.4 12.9 0.00 0.41 0.41 86 1010.8
20260506110003 17 72 6.4 12.9 0.00 0.41 0.41 86 1010.8
20260506105815 17 75 6.4 14.5 0.00 0.41 0.41 87 1010.5
20260506105203 16 73 6.4 14.5 0.00 0.41 0.41 88 1010.8
20260506104803 17 73 6.4 9.7 0.00 0.41 0.41 89 1011.0
20260506104403 17 76 6.4 9.7 0.00 0.41 0.41 89 1011.0
20260506104213 16 80 8.0 12.9 0.00 0.41 0.41 89 1011.0
20260506103603 16 77 6.4 12.9 0.00 0.41 0.41 87 1010.9
20260506103203 16 73 6.4 11.3 0.00 0.41 0.41 87 1010.8
20260506103016 16 72 6.4 11.3 0.00 0.43 0.41 87 1010.8
20260506102615 16 70 6.4 12.9 0.00 0.43 0.41 87 1010.8
20260506102003 16 69 6.4 12.9 0.03 0.43 0.41 86 1010.6
20260506101603 16 74 4.8 9.7 0.03 0.43 0.41 85 1011.1
20260506101203 17 83 3.2 6.4 0.03 0.43 0.41 85 1011.1
20260506100803 17 102 1.6 6.4 0.05 0.43 0.41 84 1011.2
20260506100403 16 93 3.2 9.7 0.05 0.43 0.41 86 1011.1
20260506095603 16 82 6.4 9.7 0.08 0.43 0.41 88 1011.3
20260506095203 16 77 4.8 9.7 0.08 0.43 0.41 90 1011.2
20260506094803 16 76 3.2 9.7 0.08 0.43 0.41 90 1011.3
20260506094403 16 77 3.2 9.7 0.08 0.43 0.41 92 1011.1
20260506094003 16 71 4.8 9.7 0.08 0.43 0.41 92 1011.0
20260506093813 16 74 4.8 9.7 0.08 0.43 0.41 91 1011.1
20260506093203 16 81 3.2 11.3 0.08 0.43 0.41 91 1011.1
20260506092803 16 107 3.2 11.3 0.08 0.43 0.41 90 1011.1
20260506092403 16 145 3.2 4.8 0.08 0.43 0.41 90 1011.2
20260506092003 16 142 3.2 6.4 0.05 0.41 0.38 89 1011.2
20260506091603 16 132 3.2 6.4 0.05 0.41 0.38 89 1011.3
20260506091414 16 120 1.6 6.4 0.05 0.41 0.38 89 1011.3
20260506090803 16 93 1.6 6.4 0.03 0.41 0.36 87 1011.3
20260506090403 16 92 3.2 6.4 0.03 0.41 0.36 87 1011.2
20260506090004 16 84 4.8 11.3 0.00 0.38 0.33 86 1011.4
20260506085603 16 76 4.8 11.3 0.00 0.38 0.33 86 1011.2
20260506085203 16 62 3.2 11.3 0.00 0.41 0.33 86 1011.1
20260506084803 16 67 3.2 4.8 0.00 0.43 0.33 85 1011.0
20260506084403 16 95 3.2 6.4 0.00 0.43 0.33 86 1011.0
20260506084003 16 83 3.2 6.4 0.00 0.46 0.33 87 1010.9
20260506083603 16 68 3.2 4.8 0.00 0.46 0.33 85 1011.1
20260506083203 16 42 3.2 4.8 0.00 0.48 0.33 86 1010.8
20260506083013 16 39 3.2 4.8 0.00 0.48 0.33 86 1010.8
20260506082403 16 43 1.6 4.8 0.00 0.48 0.33 86 1010.8
20260506082003 16 55 1.6 4.8 0.00 0.48 0.33 85 1010.7
20260506081603 16 150 1.6 3.2 0.00 0.48 0.33 86 1010.9
20260506081203 16 149 1.6 3.2 0.00 0.48 0.33 87 1010.7
20260506080803 16 78 0.0 3.2 0.00 0.48 0.33 88 1010.9
20260506080403 16 53 1.6 3.2 0.00 0.48 0.33 90 1010.9